Location: Unspecified
(0.0000°N, 0.0000°E)
Time: 13:29:24
(UTC+00:00)

AO-7 - Pass Details

Date: 14 December 2017
Orbit: 1440 x 1458 km, 101.7° (Epoch: 15 January)

Event Time Altitude Azimuth Distance (km) Brightness Sun altitude
Exits shadow 03:18:35 71° 24° (NNE) 1,525 ? -35.3°
Maximum altitude 03:19:41 87° 105° (ESE) 1,462 ? -35.1°
Drops below altitude 10° 03:28:04 10° 195° (SSW) 3,577 ? -33.3°
Sets 03:30:50 0° 195° (SSW) 4,555 ? -32.6°
